星链-5261 (STARLINK-5261 )

导读

STARLINK-5261是美国太空探索技术公司(SpaceX)星链(Starlink)项目的卫星,于2023年1月19日发射入轨,星链项目旨在为全球提供高速互联网覆盖服务,该卫星属于星链低轨卫星星座组网的一部分,运行在近地轨道,承担着卫星互联网通信相关任务,推进全球互联网覆盖进程。

Basic Information
目录编号:
55276
目录名称:
STARLINK-5261
国际标识:
2023-010H
轨道中心:
EARTH
卫星名称:
星链-5261
卫星全名:
星链-5261 (STARLINK-5261 )
卫星状态:
在轨 (已飞行1243 天)
发射日期:
2023-01-19 UTC
国别 :
美国 (US)
星等 :
--
Orbit Information
数据来源 国际轨道数据 AOE轨道数据
星历时间 2026-06-15T06:34:17+0800
9小时前
查看轨道信息
2026-06-13T05:00:00+0800
2天前
查看轨道信息
半长轴 6950.193km 6950.192km
偏心率 0.0003807 0.000359
轨道倾角 69.999° 69.997°
近地点辐角 265.733° 271.407°
升交点赤经 139.363° 144.573°
平近点角 94.339° 110.699°
近地点 569.41km 569.559km
远地点 574.702km 574.551km
周期 96.107分钟 96.107分钟
每日圈数 14.983302 14.983303
Detailed Information
固有亮度:
5
最大亮度:
2.5
卫星平台:
Starlink v1.5
覆盖范围:
全球
运营商:
太空探索技术公司
运营商所在国:
美国
制造商(研发单位):
太空探索技术公司
制造商所在国:
美国
使用方式:
暂无
Satellite Introduction
星链(Starlink)计划是由太空探索技术公司(SpaceX)提出的一个巨型低轨卫星互联网星座项目,计划在2019年至2024年间在太空搭建由约1.2万颗卫星组成的“星链”网络,其中1584颗将部署在地球上空550千米处的近地轨道,并从2020年开始工作。该卫星仍在工作。
2D Orbit Map
3D Orbit Map
Orbit Altitude Analysis Chart
Orbit Inclination Analysis Chart
Orbit Comprehensive Analysis Chart
View Comprehensive Chart